WXM80 ListenWXM80 Stop

You find our weather info also at:

UK Metoffice

WeatherCloud

Weather Underground

Northeastern Weather Network

AWEKAS

Citizen Weather Observer Program (CWOP)

HAMweather, WeatherForYou, PWS Weather


Weather Underground History page Text

Daily Summary for November 21, 2017 Units:  English    Metric   Both
« Previous Day
Next Day »
Daily Weekly Monthly Yearly Custom
  Current: High: Low: Average:
Temperature: 44.9 °F 44.9 °F 40.2 °F 41.2 °F
Dew Point: 37.1 °F 37.1 °F 28.4 °F 31.8 °F
Humidity: 74 % 75 % 59 % 69 %
Wind Speed: 2.6 mph 5.9 mph 0.3 mph 2.3 mph
Wind Gust: 7.0 mph 10.4 mph - -
Wind:WSW - - SW
Pressure: 30.17 in 30.18 in 29.90 in -
Precipitation: 0.00 in      
Historical Graphs
 
 
Tabular Data for November 21, 2017
Time Temperature Dew Point Pressure Wind Wind Speed Wind Gust Humidity Rainfall Rate (Hourly)
00:04 41.7 °F 28.4 °F 30.15 in SSW 4.0 mph 5.8 mph 59 % 0.00 in
00:09 41.6 °F 28.7 °F 30.15 in WSW 1.1 mph 4.6 mph 60 % 0.00 in
00:14 41.5 °F 29.0 °F 30.15 in SW 2.3 mph 3.5 mph 61 % 0.00 in
00:24 41.4 °F 28.9 °F 30.15 in South 2.5 mph 5.8 mph 61 % 0.00 in
00:29 41.3 °F 29.3 °F 30.15 in SW 1.9 mph 5.0 mph 62 % 0.00 in
00:39 41.1 °F 29.5 °F 30.15 in WSW 1.2 mph 3.5 mph 63 % 0.00 in
00:44 41.0 °F 29.4 °F 30.15 in SW 2.3 mph 3.5 mph 63 % 0.00 in
00:49 40.9 °F 29.3 °F 30.15 in SW 2.9 mph 6.9 mph 63 % 0.00 in
00:54 40.8 °F 29.6 °F 30.15 in SW 0.3 mph 1.2 mph 64 % 0.00 in
01:09 40.6 °F 29.7 °F 30.15 in West 3.6 mph 6.0 mph 65 % 0.00 in
01:14 40.6 °F 29.4 °F 30.15 in West 5.2 mph 10.0 mph 64 % 0.00 in
01:30 40.5 °F 29.3 °F 30.15 in SSW 2.5 mph 4.6 mph 64 % 0.00 in
01:35 40.5 °F 29.3 °F 30.15 in SW 5.8 mph 9.2 mph 64 % 0.00 in
01:45 40.6 °F 29.0 °F 30.15 in WSW 3.8 mph 10.4 mph 63 % 0.00 in
01:50 40.7 °F 29.1 °F 30.15 in SW 4.8 mph 8.1 mph 63 % 0.00 in
02:00 40.9 °F 29.3 °F 30.15 in SW 3.5 mph 5.0 mph 63 % 0.00 in
02:10 41.0 °F 29.4 °F 29.91 in SW 1.6 mph 3.5 mph 63 % 0.00 in
02:15 41.0 °F 29.4 °F 30.15 in WSW 0.6 mph 3.5 mph 63 % 0.00 in
02:25 41.0 °F 29.7 °F 30.15 in SW 2.0 mph 3.5 mph 64 % 0.00 in
02:30 40.9 °F 29.7 °F 30.16 in SSW 3.0 mph 6.9 mph 64 % 0.00 in
02:33 40.9 °F 29.7 °F 30.16 in WSW 1.5 mph 5.8 mph 64 % 0.00 in
02:43 40.9 °F 30.0 °F 30.15 in WSW 0.4 mph 3.5 mph 65 % 0.00 in
02:48 40.8 °F 29.9 °F 30.15 in SW 2.7 mph 6.0 mph 65 % 0.00 in
02:53 40.8 °F 29.9 °F 30.15 in SW 1.5 mph 4.0 mph 65 % 0.00 in
02:58 40.7 °F 29.8 °F 30.15 in SW 0.9 mph 3.5 mph 65 % 0.00 in
03:03 40.7 °F 29.8 °F 30.15 in SW 0.7 mph 2.3 mph 65 % 0.00 in
03:18 40.4 °F 30.3 °F 30.15 in SW 3.0 mph 4.6 mph 67 % 0.00 in
03:28 40.3 °F 30.6 °F 30.15 in SSW 2.0 mph 4.6 mph 68 % 0.00 in
03:33 40.3 °F 30.6 °F 30.16 in SW 1.2 mph 3.5 mph 68 % 0.00 in
03:38 40.2 °F 30.8 °F 29.91 in SSW 4.1 mph 6.0 mph 69 % 0.00 in
03:43 40.2 °F 30.8 °F 30.15 in SW 2.5 mph 4.0 mph 69 % 0.00 in
03:48 40.2 °F 30.8 °F 30.16 in WSW 1.5 mph 4.6 mph 69 % 0.00 in
03:53 40.2 °F 30.8 °F 30.15 in WSW 3.0 mph 5.0 mph 69 % 0.00 in
04:03 40.4 °F 31.4 °F 30.15 in WSW 3.9 mph 5.0 mph 70 % 0.00 in
04:08 40.5 °F 31.5 °F 30.15 in SW 5.9 mph 6.0 mph 70 % 0.00 in
04:18 40.8 °F 31.8 °F 30.15 in SW 3.3 mph 5.8 mph 70 % 0.00 in
04:19 40.8 °F 31.8 °F 30.15 in WSW 3.2 mph 5.8 mph 70 % 0.00 in
04:28 41.0 °F 32.3 °F 30.15 in SW 3.8 mph 6.0 mph 71 % 0.00 in
04:38 41.3 °F 32.6 °F 30.15 in SW 1.9 mph 5.8 mph 71 % 0.00 in
04:43 41.3 °F 32.6 °F 30.15 in WSW 2.9 mph 6.9 mph 71 % 0.00 in
04:58 41.4 °F 32.7 °F 29.90 in WSW 0.8 mph 3.5 mph 71 % 0.00 in
05:03 41.5 °F 32.8 °F 30.15 in SSW 2.6 mph 4.0 mph 71 % 0.00 in
05:08 41.4 °F 32.7 °F 30.15 in West 2.8 mph 3.5 mph 71 % 0.00 in
05:14 41.4 °F 33.0 °F 30.15 in SW 0.6 mph 1.2 mph 72 % 0.00 in
05:19 41.4 °F 33.0 °F 30.15 in SW 1.2 mph 1.2 mph 72 % 0.00 in
05:29 41.3 °F 33.0 °F 30.15 in SSW 2.7 mph 5.8 mph 72 % 0.00 in
05:34 41.2 °F 32.9 °F 29.91 in SW 0.6 mph 3.5 mph 72 % 0.00 in
05:39 41.1 °F 32.8 °F 30.15 in SSW 2.4 mph 3.5 mph 72 % 0.00 in
05:49 41.0 °F 33.0 °F 30.15 in WSW 1.4 mph 3.0 mph 73 % 0.00 in
05:54 40.9 °F 32.9 °F 29.91 in WSW 1.0 mph 3.5 mph 73 % 0.00 in
06:04 40.7 °F 32.7 °F 30.16 in SW 2.2 mph 3.5 mph 73 % 0.00 in
06:09 40.7 °F 32.7 °F 30.16 in SW 2.1 mph 3.5 mph 73 % 0.00 in
06:14 40.6 °F 33.0 °F 30.16 in SW 1.4 mph 4.6 mph 74 % 0.00 in
06:34 40.4 °F 32.8 °F 30.16 in SSW 2.0 mph 3.5 mph 74 % 0.00 in
06:44 40.5 °F 32.9 °F 30.16 in SW 2.4 mph 3.5 mph 74 % 0.00 in
06:49 40.5 °F 32.9 °F 30.16 in SW 1.9 mph 4.0 mph 74 % 0.00 in
06:54 40.6 °F 33.0 °F 30.17 in WSW 2.1 mph 4.6 mph 74 % 0.00 in
07:04 40.7 °F 32.7 °F 30.16 in WSW 0.5 mph 3.5 mph 73 % 0.00 in
07:09 40.7 °F 33.1 °F 30.16 in WSW 1.7 mph 3.5 mph 74 % 0.00 in
07:14 40.8 °F 33.2 °F 30.17 in SW 1.4 mph 3.5 mph 74 % 0.00 in
07:19 40.9 °F 33.2 °F 30.17 in WSW 2.8 mph 5.0 mph 74 % 0.00 in
07:24 40.9 °F 33.2 °F 30.17 in SSW 1.7 mph 4.6 mph 74 % 0.00 in
07:29 41.1 °F 33.4 °F 30.18 in WSW 1.0 mph 2.0 mph 74 % 0.00 in
07:34 41.2 °F 33.9 °F 30.18 in SSW 1.4 mph 4.0 mph 75 % 0.00 in
07:39 41.3 °F 34.0 °F 30.18 in SSW 2.1 mph 5.8 mph 75 % 0.00 in
07:45 41.5 °F 34.2 °F 30.17 in SSW 4.7 mph 4.7 mph 75 % 0.00 in
07:55 42.0 °F 34.6 °F 30.17 in SW 2.3 mph 5.8 mph 75 % 0.00 in
08:05 42.6 °F 35.2 °F 30.17 in SW 1.2 mph 5.8 mph 75 % 0.00 in
08:10 42.9 °F 35.5 °F 30.17 in SW 4.0 mph 9.2 mph 75 % 0.00 in
08:15 43.3 °F 35.9 °F 30.17 in SSW 1.3 mph 6.9 mph 75 % 0.00 in
08:20 43.6 °F 35.9 °F 30.17 in SW 2.0 mph 6.9 mph 74 % 0.00 in
08:25 44.0 °F 36.2 °F 30.17 in SW 4.4 mph 10.4 mph 74 % 0.00 in
08:30 44.2 °F 36.4 °F 30.18 in SW 2.5 mph 4.0 mph 74 % 0.00 in
08:35 44.6 °F 36.8 °F 30.17 in SW 2.8 mph 9.2 mph 74 % 0.00 in
08:40 44.9 °F 37.1 °F 30.17 in WSW 2.6 mph 7.0 mph 74 % 0.00 in
Crab Meadow Weather
Compliments of Weather Underground - 1.75 mb

Script developed by  Jim McMurry - jmcmurry@mwt.net Adapted for the template by  Wim van der Kuil - Leuven-Template.eu

Weather Terms: Winter Storm Watch - Conditions are favorable for hazardous winter weather conditions including heavy snow, blizzard conditions, or significant accumulations of freezing rain or sleet. These watches are issued by the Weather Service Forecast Office in Upton and are usually issued 12 to 36 hours in advance of the event.